Time,TemperatureF,DewpointF,PressureIn,WindDirection,WindDirectionDegrees,WindSpeedMPH,WindSpeedGustMPH,Humidity,HourlyPrecipIn,Conditions,Clouds,dailyrainin,SoftwareType,DateUTC
2013-01-20 00:02:00,41.0,-99.9,-100.00,North,8,3.0,-999.0,-999,-99.99,,,-99.99,,2013-01-20 08:02:00,
2013-01-20 00:12:00,41.0,-99.9,-100.00,North,8,3.0,-999.0,-999,-99.99,,,-99.99,,2013-01-20 08:12:00,
2013-01-20 01:02:00,41.0,-99.9,-100.00,North,1,3.0,-999.0,-999,-99.99,,,-99.99,,2013-01-20 09:02:00,
2013-01-20 01:12:00,41.0,-99.9,-100.00,North,1,3.0,-999.0,-999,-99.99,,,-99.99,,2013-01-20 09:12:00,
2013-01-20 02:03:00,40.0,-99.9,-100.00,SW,234,0.0,-999.0,-999,-99.99,,,-99.99,,2013-01-20 10:03:00,
2013-01-20 02:12:00,40.0,-99.9,-100.00,SW,234,0.0,-999.0,-999,-99.99,,,-99.99,,2013-01-20 10:12:00,
2013-01-20 03:03:00,39.0,-99.9,-100.00,East,86,1.0,-999.0,-999,-99.99,,,-99.99,,2013-01-20 11:03:00,
2013-01-20 03:12:00,39.0,-99.9,-100.00,East,86,1.0,-999.0,-999,-99.99,,,-99.99,,2013-01-20 11:12:00,
2013-01-20 04:03:00,40.0,-99.9,-100.00,NE,44,5.0,-999.0,-999,-99.99,,,-99.99,,2013-01-20 12:03:00,
2013-01-20 04:13:00,40.0,-99.9,-100.00,NE,44,5.0,-999.0,-999,-99.99,,,-99.99,,2013-01-20 12:13:00,
2013-01-20 05:03:00,39.0,-99.9,-100.00,WSW,239,1.0,-999.0,-999,-99.99,,,-99.99,,2013-01-20 13:03:00,
2013-01-20 05:12:00,39.0,-99.9,-100.00,WSW,239,1.0,-999.0,-999,-99.99,,,-99.99,,2013-01-20 13:12:00,
2013-01-20 06:03:00,41.0,-99.9,-100.00,NNW,340,5.0,-999.0,-999,-99.99,,,-99.99,,2013-01-20 14:03:00,
2013-01-20 06:12:00,41.0,-99.9,-100.00,NNW,340,5.0,-999.0,-999,-99.99,,,-99.99,,2013-01-20 14:12:00,
2013-01-20 07:04:00,42.0,-99.9,-100.00,NNW,338,10.0,-999.0,-999,-99.99,,,-99.99,,2013-01-20 15:04:00,
2013-01-20 07:13:00,42.0,-99.9,-100.00,NNW,338,10.0,-999.0,-999,-99.99,,,-99.99,,2013-01-20 15:13:00,
2013-01-20 08:03:00,41.0,-99.9,-100.00,NNW,344,14.0,-999.0,-999,-99.99,,,-99.99,,2013-01-20 16:03:00,
2013-01-20 08:12:00,41.0,-99.9,-100.00,NNW,344,14.0,-999.0,-999,-99.99,,,-99.99,,2013-01-20 16:12:00,
2013-01-20 09:03:00,41.0,-99.9,-100.00,NNW,340,8.0,-999.0,-999,-99.99,,,-99.99,,2013-01-20 17:03:00,
2013-01-20 09:13:00,41.0,-99.9,-100.00,NNW,340,8.0,-999.0,-999,-99.99,,,-99.99,,2013-01-20 17:13:00,
2013-01-20 10:03:00,41.0,-99.9,-100.00,NNW,332,9.0,-999.0,-999,-99.99,,,-99.99,,2013-01-20 18:03:00,
2013-01-20 10:13:00,41.0,-99.9,-100.00,NNW,332,9.0,-999.0,-999,-99.99,,,-99.99,,2013-01-20 18:13:00,
2013-01-20 11:03:00,42.0,-99.9,-100.00,NNW,344,13.0,-999.0,-999,-99.99,,,-99.99,,2013-01-20 19:03:00,
2013-01-20 11:13:00,42.0,-99.9,-100.00,NNW,344,13.0,-999.0,-999,-99.99,,,-99.99,,2013-01-20 19:13:00,
2013-01-20 12:03:00,42.0,-99.9,-100.00,NNW,348,9.0,-999.0,-999,-99.99,,,-99.99,,2013-01-20 20:03:00,
2013-01-20 12:12:00,42.0,-99.9,-100.00,NNW,348,9.0,-999.0,-999,-99.99,,,-99.99,,2013-01-20 20:12:00,
2013-01-20 13:04:00,42.0,-99.9,-100.00,NNW,343,14.0,-999.0,-999,-99.99,,,-99.99,,2013-01-20 21:04:00,
2013-01-20 13:13:00,42.0,-99.9,-100.00,NNW,343,14.0,-999.0,-999,-99.99,,,-99.99,,2013-01-20 21:13:00,
2013-01-20 14:03:00,42.0,-99.9,-100.00,NNW,344,13.0,-999.0,-999,-99.99,,,-99.99,,2013-01-20 22:03:00,
2013-01-20 14:13:00,42.0,-99.9,-100.00,NNW,344,13.0,-999.0,-999,-99.99,,,-99.99,,2013-01-20 22:13:00,
2013-01-20 15:03:00,43.0,-99.9,-100.00,NNW,345,13.0,-999.0,-999,-99.99,,,-99.99,,2013-01-20 23:03:00,
2013-01-20 15:13:00,43.0,-99.9,-100.00,NNW,345,13.0,-999.0,-999,-99.99,,,-99.99,,2013-01-20 23:13:00,
2013-01-20 16:03:00,43.0,-99.9,-100.00,NNW,338,12.0,-999.0,-999,-99.99,,,-99.99,,2013-01-21 00:03:00,
2013-01-20 16:13:00,43.0,-99.9,-100.00,NNW,338,12.0,-999.0,-999,-99.99,,,-99.99,,2013-01-21 00:13:00,
2013-01-20 17:03:00,42.0,-99.9,-100.00,North,354,10.0,-999.0,-999,-99.99,,,-99.99,,2013-01-21 01:03:00,
2013-01-20 17:13:00,42.0,-99.9,-100.00,North,354,10.0,-999.0,-999,-99.99,,,-99.99,,2013-01-21 01:13:00,
2013-01-20 18:03:00,42.0,-99.9,-100.00,NNW,348,7.0,-999.0,-999,-99.99,,,-99.99,,2013-01-21 02:03:00,
2013-01-20 18:13:00,42.0,-99.9,-100.00,NNW,348,7.0,-999.0,-999,-99.99,,,-99.99,,2013-01-21 02:13:00,
2013-01-20 19:03:00,41.0,-99.9,-100.00,NNW,343,9.0,-999.0,-999,-99.99,,,-99.99,,2013-01-21 03:03:00,
2013-01-20 19:13:00,41.0,-99.9,-100.00,NNW,343,9.0,-999.0,-999,-99.99,,,-99.99,,2013-01-21 03:13:00,
2013-01-20 20:03:00,41.0,-99.9,-100.00,NNW,333,10.0,-999.0,-999,-99.99,,,-99.99,,2013-01-21 04:03:00,
2013-01-20 20:13:00,41.0,-99.9,-100.00,NNW,333,10.0,-999.0,-999,-99.99,,,-99.99,,2013-01-21 04:13:00,
2013-01-20 21:04:00,41.0,-99.9,-100.00,NNW,342,15.0,-999.0,-999,-99.99,,,-99.99,,2013-01-21 05:04:00,
2013-01-20 21:13:00,41.0,-99.9,-100.00,NNW,342,15.0,-999.0,-999,-99.99,,,-99.99,,2013-01-21 05:13:00,
2013-01-20 22:03:00,40.0,-99.9,-100.00,NNW,345,8.0,-999.0,-999,-99.99,,,-99.99,,2013-01-21 06:03:00,
2013-01-20 22:13:00,40.0,-99.9,-100.00,NNW,345,8.0,-999.0,-999,-99.99,,,-99.99,,2013-01-21 06:13:00,
2013-01-20 23:03:00,41.0,-99.9,-100.00,NNW,346,15.0,-999.0,-999,-99.99,,,-99.99,,2013-01-21 07:03:00,
2013-01-20 23:13:00,41.0,-99.9,-100.00,NNW,346,15.0,-999.0,-999,-99.99,,,-99.99,,2013-01-21 07:13:00,